This demonstration page uses our WeatherBlox Daily Observations layout. Learn more.

Left ArrowRight Arrow

40.97296, -117.73568

Hourly Observations for May 12, 2022

Temp ( °F °C ) Dew Point ( °F °C ) Humidity (%) Winds ( mph kmh ) Pressure ( in mb ) Visibility ( mi km ) Precip ( " mm )
12:56 am 00:56 Clear 28 -2.2 22 -5.6 78 78 SSE 8 13 30.20 1023 10 16 0.00 0.00
1:56 am 01:56 Clear 27 -2.8 22 -5.6 81 81 S 3 6 30.19 1022 10 16 0.00 0.00
2:56 am 02:56 Clear 28 -2.2 22 -5.6 78 78 S 8 13 30.19 1022 10 16 0.00 0.00
3:56 am 03:56 Clear 28 -2.2 21 -6.1 75 75 SSW 3 6 30.20 1023 10 16 0.00 0.00
4:56 am 04:56 Clear 28 -2.2 21 -6.1 75 75 VRB 6 9 30.21 1023 10 16 0.00 0.00
5:56 am 05:56 Mostly Cloudy 26 -3.3 21 -6.1 81 81 Calm 30.22 1024 10 16 0.00 0.00
6:56 am 06:56 Cloudy 33 0.6 24 -4.4 70 70 Calm 30.24 1024 10 16 0.00 0.00
7:56 am 07:56 Cloudy 45 7.2 25 -3.9 46 46 SSW 9 15 30.22 1023 10 16 0.00 0.00
8:56 am 08:56 Mostly Cloudy 49 9.4 26 -3.3 41 41 S 12 19 30.23 1024 10 16 0.00 0.00
9:56 am 09:56 Sunny 52 11.1 24 -4.4 34 34 SSE 6 9 30.20 1023 10 16 0.00 0.00
10:56 am 10:56 Mostly Sunny 54 12.2 22 -5.6 29 29 WSW 6 9 30.22 1023 10 16 0.00 0.00
11:56 am 11:56 Sunny 57 13.9 23 -5 27 27 SSW 13 20 30.19 1022 10 16 0.00 0.00
12:56 pm 12:56 Mostly Sunny 56 13.3 23 -5 28 28 SW 14 22 30.19 1023 10 16 0.00 0.00
1:56 pm 13:56 Sunny 62 16.7 23 -5 22 22 W 13 20 30.17 1022 10 16 0.00 0.00
2:56 pm 14:56 Mostly Cloudy 62 16.7 23 -5 22 22 SW 14 22 30.15 1021 10 16 0.00 0.00
3:56 pm 15:56 Mostly Cloudy 64 17.8 22 -5.6 20 20 SW 15 24 30.11 1020 10 16 0.00 0.00
4:56 pm 16:56 Mostly Sunny 62 16.7 21 -6.1 21 21 SSW 12 19 30.09 1019 10 16 0.00 0.00
5:56 pm 17:56 Cloudy 62 16.7 22 -5.6 21 21 SW 15 24 30.09 1019 10 16 0.00 0.00
6:56 pm 18:56 Sunny 61 16.1 22 -5.6 22 22 WSW 13 20 30.06 1018 10 16 0.00 0.00
7:56 pm 19:56 Sunny 56 13.3 22 -5.6 27 27 WSW 7 11 30.06 1018 10 16 0.00 0.00
8:56 pm 20:56 Mostly Clear 51 10.6 23 -5 33 33 SSW 8 13 30.08 1019 10 16 0.00 0.00
9:56 pm 21:56 Mostly Clear 52 11.1 26 -3.3 37 37 WSW 10 17 30.10 1019 10 16 0.00 0.00
10:56 pm 22:56 Mostly Clear 51 10.6 27 -2.8 39 39 S 5 7 30.10 1019 10 16 0.00 0.00
11:56 pm 23:56 Partly Cloudy 50 10 27 -2.8 41 41 VRB 5 7 30.11 1020 10 16 0.00 0.00

Powered by AerisWeather